EmpreSS Of The Seas — C6CM8 — position and weather

sailwx.info

Track history (hours):
 
Tides and Currents Weather Stations Pressure Air Temp Water Temp Dewpoint Dewpoint Depression Visibility Wind Speed Wind Dir Waves Ship Positions

EmpreSS Of The Seas

Last reported at 2018-Feb-25 11:30 UTC. Time now 2018-Feb-25 11:45 UTC.
Position N 25°08' W 077°22'.

Length 211 m; draft 7.3 m.

Type: Passenger vessel. MMSI: 311000515.

Date/timePositionNaut miles runAvg speedWind from/ knotsBaromVisibWave heightAir tempDewpointWater temp
2018-Feb-25 11:30N 25°08' W 077°22'713.3
2018-Feb-25 11:00N 25°15' W 077°23'612.5
2018-Feb-25 10:31N 25°21' W 077°24'611.9
2018-Feb-25 09:59N 25°27' W 077°25'120 7.6
2018-Feb-24 18:21N 25°52' W 079°35'410.7
2018-Feb-24 17:59N 25°48' W 079°35'510.5
2018-Feb-24 17:30N 25°43' W 079°35'510.5
2018-Feb-24 17:00N 25°38' W 079°35'510.8
2018-Feb-24 16:30N 25°32' W 079°36'22 0.5
2018-Feb-22 23:06N 25°30' W 080°01'112.0
2018-Feb-22 23:00N 25°31' W 080°01'612.1
2018-Feb-22 22:30N 25°37' W 080°00'612.1
2018-Feb-22 22:00N 25°43' W 080°03'4 8.8
2018-Feb-22 21:30N 25°45' W 080°07'4 7.7
2018-Feb-22 21:00N 25°47' W 080°11'0 0.0
2018-Feb-22 20:28N 25°47' W 080°11'0 0.0
2018-Feb-22 19:55N 25°47' W 080°11'0 0.0
2018-Feb-22 19:22N 25°47' W 080°11'0 0.0
2018-Feb-22 18:55N 25°47' W 080°11'0 0.0
2018-Feb-22 18:28N 25°47' W 080°11'0 0.0
2018-Feb-22 17:58N 25°47' W 080°11'0 0.0
2018-Feb-22 17:25N 25°47' W 080°11'0 0.0
2018-Feb-22 16:55N 25°47' W 080°11'0 0.0
2018-Feb-22 16:25N 25°47' W 080°11'0 0.0
2018-Feb-22 15:58N 25°47' W 080°11'0 0.0
2018-Feb-22 15:28N 25°47' W 080°11'0 0.0
2018-Feb-22 14:55N 25°47' W 080°11'0 0.0
2018-Feb-22 14:28N 25°47' W 080°11'0 0.0
2018-Feb-22 13:58N 25°47' W 080°11'0 0.0
2018-Feb-22 13:28N 25°47' W 080°11'0 0.0
2018-Feb-22 12:58N 25°47' W 080°11'0 0.0
2018-Feb-22 12:28N 25°47' W 080°11'0 0.0
2018-Feb-22 11:58N 25°47' W 080°11'0 0.5
2018-Feb-22 11:30N 25°47' W 080°11'4 7.8
2018-Feb-22 11:00N 25°45' W 080°07'4 8.8
2018-Feb-22 10:30N 25°46' W 080°02'510.8
2018-Feb-22 10:00N 25°44' W 079°57'713.1
2018-Feb-22 09:31N 25°39' W 079°52'918.2
2018-Feb-22 09:00N 25°30' W 079°52'  
2018-Feb-17 23:19N 25°30' W 079°60'411.7
2018-Feb-17 23:00N 25°34' W 079°60'612.3
2018-Feb-17 22:30N 25°40' W 080°01'611.2
2018-Feb-17 22:00N 25°45' W 080°04'5 8.9
2018-Feb-17 21:30N 25°46' W 080°09'2 3.1
2018-Feb-17 21:01N 25°46' W 080°11'0 0.0
2018-Feb-17 20:28N 25°46' W 080°11'0 0.0
2018-Feb-17 19:58N 25°46' W 080°11'0 0.0
2018-Feb-17 19:28N 25°46' W 080°11'0 0.0
2018-Feb-17 18:58N 25°46' W 080°11'0 0.0
2018-Feb-17 18:28N 25°46' W 080°11'0 0.0
2018-Feb-17 17:52N 25°46' W 080°11'0 0.0
2018-Feb-17 17:28N 25°46' W 080°11'0 0.0
2018-Feb-17 16:58N 25°46' W 080°11'0 0.0
2018-Feb-17 16:28N 25°46' W 080°11'0 0.0
2018-Feb-17 15:58N 25°46' W 080°11'0 0.0
2018-Feb-17 15:28N 25°46' W 080°11'0 0.0
2018-Feb-17 14:58N 25°46' W 080°11'0 0.0
2018-Feb-17 14:28N 25°46' W 080°11'0 0.0
2018-Feb-17 13:58N 25°46' W 080°11'0 0.0
2018-Feb-17 13:28N 25°46' W 080°11'0 0.0
2018-Feb-17 12:58N 25°46' W 080°11'0 0.0
2018-Feb-17 12:28N 25°46' W 080°11'0 0.0
2018-Feb-17 11:58N 25°46' W 080°11'1 1.4
2018-Feb-17 11:30N 25°46' W 080°10'2 4.5
2018-Feb-17 11:00N 25°46' W 080°08'611.5
2018-Feb-17 10:30N 25°47' W 080°02'5 9.4
2018-Feb-17 10:00N 25°49' W 079°57'611.7
2018-Feb-17 09:30N 25°52' W 079°51'612.8
2018-Feb-17 09:00N 25°54' W 079°44'713.4
2018-Feb-17 08:30N 25°57' W 079°38'713.3
2018-Feb-17 08:00N 26°01' W 079°32'  
Track history (hours):
 
Tides and Currents Weather Stations Pressure Air Temp Water Temp Dewpoint Dewpoint Depression Visibility Wind Speed Wind Dir Waves Ship Positions

EmpreSS Of The Seas

Last reported at 2018-Feb-25 11:30 UTC. Time now 2018-Feb-25 11:45 UTC.
Position N 25°08' W 077°22'.

Length 211 m; draft 7.3 m.

Type: Passenger vessel. MMSI: 311000515.

Date/timePositionNaut miles runAvg speedWind from/ knotsBaromVisibWave heightAir tempDewpointWater temp
2018-Feb-25 11:30N 25°08' W 077°22'713.3
2018-Feb-25 11:00N 25°15' W 077°23'612.5
2018-Feb-25 10:31N 25°21' W 077°24'611.9
2018-Feb-25 09:59N 25°27' W 077°25'120 7.6
2018-Feb-24 18:21N 25°52' W 079°35'410.7
2018-Feb-24 17:59N 25°48' W 079°35'510.5
2018-Feb-24 17:30N 25°43' W 079°35'510.5
2018-Feb-24 17:00N 25°38' W 079°35'510.8
2018-Feb-24 16:30N 25°32' W 079°36'22 0.5
2018-Feb-22 23:06N 25°30' W 080°01'112.0
2018-Feb-22 23:00N 25°31' W 080°01'612.1
2018-Feb-22 22:30N 25°37' W 080°00'612.1
2018-Feb-22 22:00N 25°43' W 080°03'4 8.8
2018-Feb-22 21:30N 25°45' W 080°07'4 7.7
2018-Feb-22 21:00N 25°47' W 080°11'0 0.0
2018-Feb-22 20:28N 25°47' W 080°11'0 0.0
2018-Feb-22 19:55N 25°47' W 080°11'0 0.0
2018-Feb-22 19:22N 25°47' W 080°11'0 0.0
2018-Feb-22 18:55N 25°47' W 080°11'0 0.0
2018-Feb-22 18:28N 25°47' W 080°11'0 0.0
2018-Feb-22 17:58N 25°47' W 080°11'0 0.0
2018-Feb-22 17:25N 25°47' W 080°11'0 0.0
2018-Feb-22 16:55N 25°47' W 080°11'0 0.0
2018-Feb-22 16:25N 25°47' W 080°11'0 0.0
2018-Feb-22 15:58N 25°47' W 080°11'0 0.0
2018-Feb-22 15:28N 25°47' W 080°11'0 0.0
2018-Feb-22 14:55N 25°47' W 080°11'0 0.0
2018-Feb-22 14:28N 25°47' W 080°11'0 0.0
2018-Feb-22 13:58N 25°47' W 080°11'0 0.0
2018-Feb-22 13:28N 25°47' W 080°11'0 0.0
2018-Feb-22 12:58N 25°47' W 080°11'0 0.0
2018-Feb-22 12:28N 25°47' W 080°11'0 0.0
2018-Feb-22 11:58N 25°47' W 080°11'0 0.5
2018-Feb-22 11:30N 25°47' W 080°11'4 7.8
2018-Feb-22 11:00N 25°45' W 080°07'4 8.8
2018-Feb-22 10:30N 25°46' W 080°02'510.8
2018-Feb-22 10:00N 25°44' W 079°57'713.1
2018-Feb-22 09:31N 25°39' W 079°52'918.2
2018-Feb-22 09:00N 25°30' W 079°52'  
2018-Feb-17 23:19N 25°30' W 079°60'411.7
2018-Feb-17 23:00N 25°34' W 079°60'612.3
2018-Feb-17 22:30N 25°40' W 080°01'611.2
2018-Feb-17 22:00N 25°45' W 080°04'5 8.9
2018-Feb-17 21:30N 25°46' W 080°09'2 3.1
2018-Feb-17 21:01N 25°46' W 080°11'0 0.0
2018-Feb-17 20:28N 25°46' W 080°11'0 0.0
2018-Feb-17 19:58N 25°46' W 080°11'0 0.0
2018-Feb-17 19:28N 25°46' W 080°11'0 0.0
2018-Feb-17 18:58N 25°46' W 080°11'0 0.0
2018-Feb-17 18:28N 25°46' W 080°11'0 0.0
2018-Feb-17 17:52N 25°46' W 080°11'0 0.0
2018-Feb-17 17:28N 25°46' W 080°11'0 0.0
2018-Feb-17 16:58N 25°46' W 080°11'0 0.0
2018-Feb-17 16:28N 25°46' W 080°11'0 0.0
2018-Feb-17 15:58N 25°46' W 080°11'0 0.0
2018-Feb-17 15:28N 25°46' W 080°11'0 0.0
2018-Feb-17 14:58N 25°46' W 080°11'0 0.0
2018-Feb-17 14:28N 25°46' W 080°11'0 0.0
2018-Feb-17 13:58N 25°46' W 080°11'0 0.0
2018-Feb-17 13:28N 25°46' W 080°11'0 0.0
2018-Feb-17 12:58N 25°46' W 080°11'0 0.0
2018-Feb-17 12:28N 25°46' W 080°11'0 0.0
2018-Feb-17 11:58N 25°46' W 080°11'1 1.4
2018-Feb-17 11:30N 25°46' W 080°10'2 4.5
2018-Feb-17 11:00N 25°46' W 080°08'611.5
2018-Feb-17 10:30N 25°47' W 080°02'5 9.4
2018-Feb-17 10:00N 25°49' W 079°57'611.7
2018-Feb-17 09:30N 25°52' W 079°51'612.8
2018-Feb-17 09:00N 25°54' W 079°44'713.4
2018-Feb-17 08:30N 25°57' W 079°38'713.3
2018-Feb-17 08:00N 26°01' W 079°32'  

Dump ship's entire track history